| time (UTC) | temp C | wind direction | speed KPH | gust KPH | rain 1hr cm | rain 24hr cm | rain mn cm | humidity % | barometer mb |
| 20260506200014 | 18 | 198 | 4.8 | 33.8 | 0.00 | 0.00 | 0.00 | 62 | 1003.6 |
| 20260506194513 | 19 | 206 | 22.5 | 48.3 | 0.00 | 0.00 | 0.00 | 61 | 1003.1 |
| 20260506193016 | 19 | 246 | 24.1 | 57.9 | 0.00 | 0.00 | 0.00 | 59 | 1002.9 |
| 20260506191512 | 19 | 213 | 30.6 | 67.6 | 0.00 | 0.00 | 0.00 | 59 | 1002.8 |
| 20260506190010 | 20 | 215 | 29.0 | 70.8 | 0.00 | 0.00 | 0.00 | 58 | 1002.8 |
| 20260506184511 | 20 | 225 | 38.6 | 70.8 | 0.00 | 0.00 | 0.00 | 57 | 1002.6 |
| 20260506183010 | 20 | 235 | 35.4 | 64.4 | 0.00 | 0.00 | 0.00 | 57 | 1002.5 |
| 20260506181509 | 20 | 222 | 30.6 | 74.0 | 0.00 | 0.00 | 0.00 | 55 | 1002.4 |
| 20260506180014 | 21 | 225 | 37.0 | 80.5 | 0.00 | 0.00 | 0.00 | 54 | 1002.2 |
| 20260506174508 | 21 | 224 | 33.8 | 67.6 | 0.00 | 0.00 | 0.00 | 53 | 1002.2 |
| 20260506173007 | 21 | 247 | 33.8 | 75.6 | 0.00 | 0.00 | 0.00 | 52 | 1002.2 |
| 20260506171515 | 22 | 240 | 30.6 | 75.6 | 0.00 | 0.00 | 0.00 | 53 | 1002.1 |
| 20260506170008 | 22 | 214 | 35.4 | 70.8 | 0.00 | 0.00 | 0.00 | 52 | 1002.0 |
| 20260506164505 | 22 | 225 | 33.8 | 69.2 | 0.00 | 0.00 | 0.00 | 51 | 1002.1 |
| 20260506163004 | 23 | 210 | 17.7 | 75.6 | 0.00 | 0.00 | 0.00 | 49 | 1002.2 |
| 20260506161502 | 23 | 240 | 29.0 | 75.6 | 0.00 | 0.00 | 0.00 | 48 | 1002.3 |
| 20260506160001 | 23 | 230 | 25.7 | 85.3 | 0.00 | 0.00 | 0.00 | 48 | 1002.5 |
| 20260506154600 | 23 | 230 | 27.4 | 82.1 | 0.00 | 0.00 | 0.00 | 49 | 1002.5 |
| 20260506153100 | 23 | 226 | 35.4 | 90.1 | 0.00 | 0.00 | 0.00 | 48 | 1002.6 |
| 20260506151608 | 23 | 246 | 38.6 | 75.6 | 0.00 | 0.00 | 0.00 | 47 | 1002.5 |
| 20260506144606 | 23 | 208 | 37.0 | 86.9 | 0.00 | 0.00 | 0.00 | 45 | 1002.6 |
| 20260506143100 | 24 | 235 | 22.5 | 72.4 | 0.00 | 0.00 | 0.00 | 43 | 1002.5 |
| 20260506141557 | 25 | 230 | 29.0 | 80.5 | 0.00 | 0.00 | 0.00 | 41 | 1002.7 |
| 20260506140105 | 25 | 210 | 22.5 | 85.3 | 0.00 | 0.00 | 0.00 | 41 | 1002.6 |
| 20260506134552 | 25 | 246 | 29.0 | 67.6 | 0.00 | 0.00 | 0.00 | 41 | 1002.9 |
| 20260506133114 | 25 | 213 | 30.6 | 83.7 | 0.00 | 0.00 | 0.00 | 41 | 1002.9 |
| 20260506131546 | 25 | 205 | 35.4 | 67.6 | 0.00 | 0.00 | 0.00 | 43 | 1003.2 |
| 20260506130057 | 24 | 203 | 27.4 | 64.4 | 0.00 | 0.00 | 0.00 | 42 | 1003.4 |
| 20260506124543 | 24 | 235 | 32.2 | 61.2 | 0.00 | 0.00 | 0.00 | 42 | 1003.5 |
| 20260506123042 | 24 | 208 | 20.9 | 67.6 | 0.00 | 0.00 | 0.00 | 41 | 1003.7 |
| 20260506121542 | 24 | 225 | 27.4 | 77.2 | 0.00 | 0.00 | 0.00 | 40 | 1003.9 |
| 20260506120043 | 24 | 235 | 16.1 | 51.5 | 0.00 | 0.00 | 0.00 | 40 | 1004.0 |
| 20260506114542 | 23 | 184 | 22.5 | 59.5 | 0.00 | 0.00 | 0.00 | 43 | 1004.1 |
| 20260506113035 | 23 | 176 | 35.4 | 54.7 | 0.00 | 0.00 | 0.00 | 45 | 1004.4 |
| 20260506111537 | 23 | 212 | 37.0 | 66.0 | 0.00 | 0.00 | 0.00 | 46 | 1004.7 |
| 20260506110036 | 23 | 188 | 24.1 | 61.2 | 0.00 | 0.00 | 0.00 | 48 | 1004.9 |
| 20260506104529 | 23 | 158 | 20.9 | 62.8 | 0.00 | 0.00 | 0.00 | 49 | 1005.1 |
| 20260506103028 | 22 | 190 | 27.4 | 64.4 | 0.00 | 0.00 | 0.00 | 48 | 1005.6 |
| 20260506101544 | 22 | 179 | 29.0 | 57.9 | 0.00 | 0.00 | 0.00 | 50 | 1005.6 |
| 20260506100025 | 22 | 179 | 16.1 | 49.9 | 0.00 | 0.00 | 0.00 | 49 | 1005.9 |
| 20260506094523 | 22 | 204 | 27.4 | 54.7 | 0.00 | 0.00 | 0.00 | 50 | 1006.1 |
| 20260506093021 | 22 | 202 | 12.9 | 40.2 | 0.00 | 0.00 | 0.00 | 53 | 1006.1 |
| 20260506091522 | 23 | 184 | 16.1 | 38.6 | 0.00 | 0.00 | 0.00 | 47 | 1006.2 |
| 20260506090015 | 22 | 157 | 3.2 | 27.4 | 0.00 | 0.00 | 0.00 | 50 | 1006.3 |
| 20260506084518 | 22 | 142 | 8.0 | 25.7 | 0.00 | 0.00 | 0.00 | 51 | 1006.3 |
| 20260506083008 | 22 | 211 | 3.2 | 25.7 | 0.00 | 0.00 | 0.00 | 53 | 1006.3 |
| 20260506081507 | 21 | 142 | 3.2 | 20.9 | 0.00 | 0.00 | 0.00 | 54 | 1006.3 |
| 20260506073104 | 21 | 187 | 0.0 | 11.3 | 0.00 | 0.00 | 0.00 | 56 | 1006.6 |
| 20260506071607 | 21 | 186 | 0.0 | 11.3 | 0.00 | 0.00 | 0.00 | 58 | 1006.7 |
| 20260506061539 | 18 | 186 | 0.0 | 0.0 | 0.00 | 0.00 | 0.00 | 64 | 1007.0 |
| 20260506044529 | 16 | 323 | 0.0 | 0.0 | 0.00 | 0.00 | 0.00 | 73 | 1006.7 |
| 20260506043028 | 15 | 336 | 0.0 | 0.0 | 0.00 | 0.00 | 0.00 | 74 | 1006.7 |
| 20260506041531 | 15 | 336 | 0.0 | 12.9 | 0.00 | 0.00 | 0.00 | 74 | 1006.5 |
| 20260506040025 | 16 | 338 | 3.2 | 20.9 | 0.00 | 0.00 | 0.00 | 74 | 1006.4 |
| 20260506034519 | 16 | 339 | 0.0 | 0.0 | 0.00 | 0.00 | 0.00 | 73 | 1006.4 |
| 20260506033016 | 16 | 340 | 0.0 | 20.9 | 0.00 | 0.00 | 0.00 | 72 | 1006.3 |
| 20260506031522 | 16 | 340 | 0.0 | 24.1 | 0.00 | 0.00 | 0.00 | 71 | 1006.3 |
| 20260506030020 | 16 | 338 | 6.4 | 37.0 | 0.00 | 0.00 | 0.00 | 71 | 1006.3 |
| 20260506024513 | 17 | 337 | 3.2 | 25.7 | 0.00 | 0.00 | 0.00 | 70 | 1006.2 |
| 20260506023012 | 17 | 333 | 0.0 | 17.7 | 0.00 | 0.00 | 0.00 | 70 | 1006.2 |
| 20260506021511 | 17 | 334 | 8.0 | 40.2 | 0.00 | 0.00 | 0.00 | 69 | 1006.1 |
| 20260506020013 | 17 | 346 | 12.9 | 37.0 | 0.00 | 0.00 | 0.00 | 68 | 1005.9 |
| 20260506014513 | 17 | 330 | 16.1 | 38.6 | 0.00 | 0.00 | 0.00 | 67 | 1005.8 |
| 20260506013021 | 17 | 350 | 6.4 | 30.6 | 0.00 | 0.00 | 0.00 | 66 | 1005.8 |
| 20260506011506 | 17 | 345 | 16.1 | 53.1 | 0.00 | 0.00 | 0.00 | 67 | 1005.8 |
| 20260506010003 | 16 | 334 | 29.0 | 48.3 | 0.00 | 0.00 | 0.00 | 70 | 1005.6 |
| 20260506004600 | 15 | 230 | 0.0 | 0.0 | 0.00 | 0.00 | 0.00 | 68 | 1005.5 |
| 20260506003057 | 15 | 230 | 0.0 | 0.0 | 0.00 | 0.00 | 0.00 | 67 | 1005.2 |
| 20260506001614 | 15 | 230 | 0.0 | 0.0 | 0.00 | 0.00 | 0.00 | 67 | 1005.0 |
| 20260506000053 | 15 | 230 | 0.0 | 20.9 | 0.00 | 0.00 | 0.00 | 66 | 1005.0 |
| 20260505234553 | 15 | 225 | 0.0 | 0.0 | 0.00 | 0.00 | 0.00 | 67 | 1004.8 |
| 20260505233055 | 15 | 225 | 0.0 | 16.1 | 0.00 | 0.00 | 0.00 | 66 | 1004.6 |
| 20260505231553 | 15 | 225 | 0.0 | 11.3 | 0.00 | 0.00 | 0.00 | 66 | 1004.6 |
| 20260505230047 | 15 | 225 | 0.0 | 12.9 | 0.00 | 0.00 | 0.00 | 65 | 1004.4 |
| 20260505224547 | 15 | 225 | 0.0 | 0.0 | 0.00 | 0.00 | 0.00 | 65 | 1004.2 |
| 20260505223048 | 16 | 225 | 0.0 | 22.5 | 0.00 | 0.00 | 0.00 | 64 | 1004.0 |
| 20260505221544 | 16 | 225 | 0.0 | 0.0 | 0.00 | 0.00 | 0.00 | 63 | 1003.9 |
| 20260505220041 | 16 | 224 | 0.0 | 9.7 | 0.00 | 0.00 | 0.00 | 61 | 1003.8 |
| 20260505214554 | 17 | 225 | 4.8 | 25.7 | 0.00 | 0.00 | 0.00 | 60 | 1003.6 |
| 20260505213050 | 17 | 224 | 4.8 | 29.0 | 0.00 | 0.00 | 0.00 | 60 | 1003.6 |
| 20260505211534 | 16 | 213 | 8.0 | 17.7 | 0.00 | 0.00 | 0.00 | 61 | 1003.5 |
| 20260505210034 | 17 | 212 | 0.0 | 12.9 | 0.00 | 0.00 | 0.00 | 60 | 1003.4 |
| 20260505204536 | 17 | 211 | 3.2 | 25.7 | 0.00 | 0.00 | 0.00 | 59 | 1003.0 |
| 20260505203039 | 17 | 224 | 9.7 | 37.0 | 0.00 | 0.00 | 0.00 | 57 | 1002.8 |
| 20260505201545 | 18 | 235 | 11.3 | 32.2 | 0.00 | 0.00 | 0.00 | 57 | 1002.7 |